Location: Dodgeville
(42.9600°N, 90.1300°W)
Time: 20:50:48
(UTC-05:00)

Uosat F - Visible Passes

Search period start: 01 September 2014 00:00
Search period end: 11 September 2014 00:00
Orbit: 751 x 763 km, 98.7° (Epoch: 01 September)

Date Brightness Start Highest point End Pass type
(mag) Time Alt. Az. Time Alt. Az. Time Alt. Az.
01 Sep 12.3 04:58:09 10° NNE 05:02:54 41° E 05:07:36 10° S visible
02 Sep 13.6 04:20:05 10° NE 04:23:29 18° E 04:26:52 10° SE visible
03 Sep 11.5 05:18:33 10° NNE 05:23:32 65° ESE 05:28:30 10° S visible
04 Sep 13.0 04:39:58 10° NE 04:44:15 28° E 04:48:30 10° SSE visible
05 Sep 13.9 04:02:58 10° ENE 04:04:43 12° E 04:06:28 10° ESE visible
05 Sep 11.0 05:39:05 10° NNE 05:44:07 82° WNW 05:49:07 10° SSW visible
06 Sep 12.3 05:00:10 10° NNE 05:04:56 43° E 05:09:41 10° S visible
07 Sep 13.6 04:22:03 10° NE 04:25:32 19° E 04:29:00 10° SE visible
07 Sep 11.3 05:59:46 10° N 06:04:38 53° WNW 06:09:30 10° SSW visible
08 Sep 11.4 05:20:34 10° NNE 05:25:34 67° ESE 05:30:33 10° S visible
09 Sep 13.0 04:41:57 10° NE 04:46:17 29° E 04:50:36 10° SSE visible
10 Sep 13.9 04:04:49 10° ENE 04:06:46 12° E 04:08:43 10° ESE visible
10 Sep 11.0 05:41:07 10° NNE 05:46:09 80° WNW 05:51:09 10° SSW visible
